SPIRALE B

Last updated on Oct. 29, 2020, 5:53 a.m. UTC

1 33752U 09008D   20302.30008657  .00000943  00000-0  27341-3 0  9999
2 33752   2.1794  69.3944 6899932 241.3533  34.1335  2.76187851108426
UTC
Height (km)
Latitude
Longitude
Inclination
Orbital Period
UTC large
Height (km)
Speed (km/s)
/
Latitude / Longitude
Inclination (degrees)
Orbital Period (minutes)
Azimuth
Elevation
Range (km)
Doppler Factor
iOS Compass Heading
iOS Angle

Next 30 passes for location: Hong Kong

Rise time Rise Azimuth (degrees) Set time Set Azimuth (degrees) Duration Max altitude (degrees)

No matching passes for this satellites